www.pogodaiklimat.ru
ПОГОДА в Делано
Время
и дата
10:35 04.12
10:55 04.12
11:15 04.12
11:35 04.12
11:55 04.12
12:15 04.12
12:35 04.12
12:55 04.12
13:15 04.12
13:35 04.12
13:55 04.12
14:15 04.12
14:35 04.12
14:55 04.12
15:15 04.12
15:35 04.12
15:55 04.12
16:15 04.12
16:35 04.12
16:55 04.12
17:15 04.12
17:35 04.12
17:55 04.12
18:15 04.12
18:35 04.12
18:55 04.12
19:15 04.12
19:35 04.12
19:55 04.12
20:15 04.12
20:35 04.12
20:55 04.12
21:15 04.12
21:35 04.12
21:55 04.12
22:15 04.12
22:35 04.12
22:55 04.12
23:15 04.12
23:35 04.12
23:55 04.12
00:15 05.12
00:35 05.12
00:55 05.12
01:15 05.12
01:35 05.12
01:55 05.12
02:15 05.12
Ветер
(напр.,м/с)
Видим. Явления Облачность Т
(С)
Тd
(С)
f
(%)
Тe
(С)
Тes
(С)
Комфортность P
(гПа)
Po
(гПа)
Тmin
(С)
Tmax
(С)
R
(мм)
R24
(мм)
S
(см)
штиль 0 16 км 10/10 1110 м +12.6 +10.4 86 +12 +12 1008.9
СЗ 2 16 км 10/10 1350 м +13.1 +9.2 77 +12 +12 1008.9
СЗ 2 16 км 10/10 1500 м +13.4 +9.1 75 +13 +13 1008.5
СЗ 2 16 км 10/10 1500 м +13.4 +9.5 77 +13 +13 1008.5
СЗ 2 16 км 10/10 1800 м +13.5 +8.9 74 +13 +13 1008.5
штиль 0 16 км слабая морось 10/8 510 m
[Ac St]
+13.6 +9.5 76 +13 +14 1008.5
С 2 16 км 10/8 570 m
[Ac]
+14.1 +9.9 76 +14 +14 1008.2
штиль 0 16 км 8/8 570 m
[Ac]
+14.3 +8.9 70 +14 +16 1007.8
штиль 0 16 км 5/5 660 m
[Ac]
+14.9 +8.6 66 +15 +18 1007.8
С 2 16 км 10/5 780 m
[Ac]
+15.1 +8.2 63 +15 +16 1007.8
С 2 16 км 10/8 840 m
[Ac]
+15.1 +8.4 64 +15 +15 1007.5
С 3 16 км 10/10 840 м +15.1 +7.7 61 +14 +14 1007.5
В 3 16 км 5/5 1140 м +14.6 +9.9 73 +14 +15 1007.2
В 2 16 км 5/5 960 м +14.5 +9.3 71 +14 +16 1007.2
В 2 16 км 8/8 1380 м +14.3 +9.4 72 +14 +14 1007.2
ЮВ 2 16 км 8/5 1650 m
[Ac]
+14.1 +10.0 76 +14 +14 1006.8
Ю 2 11 км 5/0 2100 m
[Ac]
+13.7 +10.0 78 +13 +14 1006.8 +11.9 +15.3
Ю 3 8 км мгла ясно +13.6 +10.2 80 +12 +13 1006.8
Ю 2 16 км ясно +13.7 +9.5 76 +13 +14 1006.8
Ю 2 16 км 5/0 2100 m
[Ac]
+13.2 +9.6 79 +13 +13 1006.8
Ю 4 16 км ясно +12.3 +9.5 83 +10 +10 1007.2
Ю 3 16 км ясно +11.6 +9.2 85 +10 +10 1007.2
Ю 2 16 км ясно +11.2 +9.0 86 +10 +10 1007.2
Ю 2 16 км ясно +10.8 +8.5 86 +9 +9 1007.2
ЮВ 2 16 км ясно +9.7 +8.5 92 +8 +8 1007.2
штиль 0 16 км ясно +9.3 +8.5 95 +8 +8 1007.2
В 2 16 км ясно +8.6 +7.8 95 +7 +7 1007.2
штиль 0 16 км ясно +8.0 +7.2 95 +7 +7 1007.2
штиль 0 16 км ясно +8.2 +7.5 95 +7 +7 1007.2
штиль 0 16 км ясно +7.8 +7.1 95 +7 +7 1006.8
штиль 0 16 км ясно +7.2 +6.5 95 +6 +6 1006.8
штиль 0 16 км ясно +7.5 +6.7 95 +6 +6 1006.8
штиль 0 16 км ясно +6.9 +6.1 95 +6 +6 1006.8
штиль 0 16 км 8/8 1080 м +7.0 +6.2 95 +6 +6 1006.8
штиль 0 16 км 10/10 1080 м +7.0 +6.1 94 +6 +6 1006.8 +6.7 +13.8
ЮВ 2 16 км 8/8 1020 м +7.1 +6.1 93 +5 +5 1006.8
штиль 0 16 км 8/8 1320 м +7.1 +6.3 95 +6 +6 1006.8
штиль 0 16 км 10/10 1320 м +7.5 +6.6 94 +6 +6 1006.8
штиль 0 16 км 5/5 1320 м +7.5 +6.5 93 +7 +7 1006.8
штиль 0 16 км 5/5 900 м +7.2 +6.5 95 +6 +6 1006.8
штиль 0 11 км 8/8 840 м +7.5 +6.5 93 +7 +7 1006.8
штиль 0 16 км 8/8 840 м +7.1 +6.2 94 +6 +6 1006.5
штиль 0 16 км 5/5 1200 м +6.8 +6.0 95 +6 +6 1006.5
штиль 0 16 км 8/8 1500 м +7.2 +6.1 93 +6 +6 1006.5
штиль 0 16 км 8/8 1500 м +7.0 +6.0 93 +6 +6 1006.5
штиль 0 16 км ясно +6.7 +5.9 95 +6 +6 1006.2
штиль 0 16 км 5/5 1500 м +7.0 +6.3 95 +6 +6 1006.5
штиль 0 16 км 10/10 1500 м +7.9 +6.6 91 +7 +7 1006.5
Местоположение метеостанции Delano Municipal Airport: широта 35.7456 долгота -119.2365 высота над уровнем моря 97 м.
В архиве по умолчанию представлена погода в Делано за последние 1-2 суток. Обновление информации о фактической погоде в базе происходит ежечасно! Архивные данные за месяц целиком и за предыдущие месяцы Вы можете получить, выбрав интересующий диапазон дат из раскрывающегося списка и нажав кнопку "Ввод!".
Внимание! Архив погоды МЕТАР в базе сайта по станциям, не включенным в климатический монитор, хранится не более 60 дней. Нет смысла пытаться выбрать более раннюю дату.
*Определитесь, кто Вы:
Внимание! Время в таблицах - местное (без учета летнего времени). Для получения всемирного времени необходимо вычесть поправку, которая равна -8 ч.
Смотрите также архив погоды в соседних городах и на ближайших метеорологических станциях:
Партнеры нашего сайта:      
Пояснения к столбцам:
  • Ветер - указаны скорость ветра в м/с - средняя за 10 мин, порывы в срок и между сроками (в фигурных скобках) и направление, откуда дует ветер: С - северный,
  • СВ - северо-восточный, В - восточный, ЮВ - юго-восточный, Ю - южный, ЮЗ - юго-западный, З - западный, СЗ - северо-западный.
  • Видимость - горизонтальная дальность видимости в метрах или километрах. При видимости от 1 до 10 км при отсутствии осадков обычно наблюдается дымка, при ухудшении видимости до 1 км и менее - туман. В сухую погоду видимость может ухудшаться дымом, пылью или мглою.
  • Явления - указаны атмосферные явления, наблюдавшиеся в срок или в последний час перед сроком; фигурными скобками обозначены явления, наблюдавшиеся между сроками (за 1-3 часа до срока); квадратными скобками обозначены град или гололедные отложения с указанием их диаметра в мм.
  • Облачность - указаны через наклонную черту общая и нижняя облачность в баллах и высота нижней границы облаков в метрах; квадратными скобками обозначены формы облаков: Ci - перистые, Cs - перисто-слоистые, Cc - перисто-кучевые, Ac - высококучевые, As - высокослоистые, Sc - слоисто-кучевые, Ns - слоисто-дождевые, Cu - кучевые, Cb - кучево-дождевые. Подробнее классификацию облаков см. в Атласе облаков (PDF).
  • T - Температура воздуха - температура, измеренная на высоте 2 м над землей.
  • Td - Температура точки росы - температура, при понижении до которой содержащийся в воздухе водяной пар достигнет насыщения.
  • f - Относительная влажность воздуха - влажноcть воздуха, измеренная на высоте 2 м над землей.
  • Te - Эффективная температура - температура, которую ощущает одетый по сезону человек в тени. Характеристика душности погоды. При расчете учитывается влияние влажности воздуха и скорости ветра на теплоощущения человека.
  • Tes - Эффективная температура на солнце - температура, которую ощущает человек, с поправкой на солнечный нагрев. Характеристика знойности погоды. Зависит от высоты солнца над горизонтом, облачности и скорости ветра. Ночью, в пасмурную погоду, а также при ветре 12 м/с и более поправка равна нулю.
  • P - Атмосферное давление - приведенное к уровню моря атмосферное давление.
  • Po - Атмосферное давление - измеренное на уровне метеостанции атмосферное давление.
  • Tmin - Минимальная температура - минимум температуры воздуха на высоте 2 м над землей.
  • Tmax - Максимальная температура - максимум температуры воздуха на высоте 2 м над землей.
  • R - Количество осадков - Количество выпавших осадков за период времени, мм. При наведении курсора мыши на число - период времени, за который выпало указанное количество осадков.
  • R24 - Количество осадков - Количество выпавших осадков за 24 часа, мм.
  • S - Снежный покров - Высота снежного покрова, см. При наведении курсора мыши на число - состояние снежного покрова и степень покрытия местности в баллах.